Regional Weather Roundup
Issued by NWS

Home | Current Version | Previous Version | Text Only | Print | Product List | Glossary Off
Versions: 1 2 3 4 5 6 7 8 9 10 11 12 13 14 15 16 17 18 19 20 21 22 23 24 25 26 27 28 29 30 31 32 33 34 35 36 37 38 39 40 41 42 43 44 45 46 47 48 49 50

000
ASUS43 KMPX 220310
RWRMN
WEATHER ROUNDUP FOR MINNESOTA
NATIONAL WEATHER SERVICE TWIN CITIES/CHANHASSEN MN
1000 PM CDT SAT OCT 21 2017


NOTE: "FAIR" INDICATES FEW OR NO CLOUDS BELOW 12,000 FEET WITH NO
SIGNIFICANT WEATHER AND/OR OBSTRUCTIONS TO VISIBILITY. N/A MEANS
CURRENT SKY AND/OR WEATHER CONDITIONS ARE NOT AVAILABLE.

MNZ060>063-068>070-220400-
   Twin Cities Metro

CITY           SKY/WX    TMP DP  RH WIND       PRES   REMARKS
TWIN CITIES    CLOUDY    56  53  90 W9        29.78R
ST PAUL        CLOUDY    56  51  84 W6        29.79R
CRYSTAL        PTCLDY    55  49  80 SW10      29.77R
BLAINE         CLOUDY    55  54  94 SW6       29.77R
LAKEVILLE      CLOUDY    54  54 100 W7        29.80R
EDEN PRAIRIE   CLOUDY    55  50  83 W10       29.78R
SOUTH ST PAUL  CLOUDY    57  51  80 SW3       29.79R
LAKE ELMO      RAIN      55  50  82 W10       29.79R
$$
MNZ001>005-007-008-013>017-022>024-027-028-220400-
   Northwest Minnesota

CITY           SKY/WX    TMP DP  RH WIND       PRES   REMARKS
BEMIDJI        CLEAR     48  43  82 W15       29.66S
HALLOCK        CLOUDY    52  43  71 W14       29.59R
ROSEAU         MOCLDY    52  45  76 SW9       29.58R
WARROAD        PTCLDY    50  45  81 SW8       29.58R
THIEF RVR FALL CLOUDY    51  41  68 SW15      29.64R
CROOKSTON      CLOUDY    52  43  71 W13       29.66S
FOSSTON        CLOUDY    48  41  76 SW12G18   29.67F
DETROIT LAKES  CLOUDY    50  43  76 SW12      29.73S
MOORHEAD       CLOUDY    52  41  66 SW10      29.73S
PARK RAPIDS    LGT RAIN  48  44  86 W14       29.70R
MAHNOMEN       CLOUDY    49  43  81 SW13      29.69S
$$
MNZ006-009>011-018-025>026-220400-
   North Central Minnesota

CITY           SKY/WX    TMP DP  RH WIND       PRES   REMARKS
BAUDETTE       CLOUDY    52  45  77 SW8       29.58R
FLAG ISLAND    CLOUDY    55  45  67 SW9       29.52S
INTL FALLS     LGT RAIN  54  51  90 SW8       29.59R
WASKISH        CLEAR     52  46  82 SW12G18   29.62R
BIG FORK       CLOUDY    54  50  87 SW7       29.64R
LONGVILLE      PTCLDY    50  46  87 SW9G20    29.69R
GRAND RAPIDS   CLOUDY    53  50  89 SW6       29.68R
CRANE LAKE     CLOUDY    61  59  94 SE5       29.62S
ORR            CLOUDY    61  57  88 S7        29.57F
COOK           LGT RAIN  63  61  94 S7        29.61F
WALKER         FAIR      48  44  84 W13       29.68R
$$
MNZ012-019>021-037-220400-
   Northeast Minnesota

CITY           SKY/WX    TMP DP  RH WIND       PRES   REMARKS
DULUTH         CLOUDY    62  61  96 S16       29.66F
ELY            CLOUDY    63  59  88 S13G21    29.64F
HIBBING        CLOUDY    56  55  97 W13G21    29.64R
EVELETH        LGT RAIN  62  62 100 S8        29.64F
DULUTH HARBOR  MOCLDY    64  61  88 S10       29.65F
TWO HARBORS    CLOUDY    64  61  88 S3        29.65F
SILVER BAY     CLOUDY    61  59  94 CALM      29.66F
GRAND MARAIS     N/A     54  53  97 CALM      29.71S
G MARAIS ARPRT CLOUDY    57  54  88 S8        29.74S
$$
MNZ029>031-032-039>041-046>048-054>057-064-220400-
   West Central Minnesota

CITY           SKY/WX    TMP DP  RH WIND       PRES   REMARKS
FERGUS FALLS   CLOUDY    48  43  81 W10       29.75F
WHEATON        MOCLDY    50  39  66 W8        29.79F
MORRIS         CLEAR     48  43  81 W9        29.77S
ALEXANDRIA     PTCLDY    49  42  77 W16G22    29.77S
ELBOW LAKE     MOCLDY    48  42  78 W13G20    29.76F
WADENA         PTCLDY    46  43  87 W9        29.72S
GLENWOOD       CLEAR     46  43  87 W9G17     29.79R
APPLETON       CLEAR     48  43  81 W10       29.81R
BENSON         CLEAR     46  41  81 W8        29.82R
ORTONVILLE     CLEAR     48  39  71 W8        29.80R
MADISON        CLEAR     52  43  71 W10       29.83R
WILLMAR        FAIR      48  45  87 W8        29.83R
$$
MNZ033>034-036-042>043-049>051-058-059-220400-
   Central Minnesota

CITY           SKY/WX    TMP DP  RH WIND       PRES   REMARKS
ST CLOUD       CLOUDY    51  45  79 W15       29.77R
SAUK CENTRE    FAIR      47  42  83 W8        29.78R
PAYNESVILLE    PTCLDY    49  44  83 W10       29.80R
AITKIN         MOCLDY    48  46  93 SW7       29.68S
PINE RIVER     CLOUDY    48  43  81 W7        29.74S
BRAINERD       CLOUDY   N/A N/A N/A W12       29.71R
STAPLES        CLEAR     46  43  87 W14       29.72F
LONG PRAIRIE   FAIR      46  41  81 SW9G18    29.76R
LITTLE FALLS   PTCLDY    50  37  62 W8        29.76R
LITCHFIELD     CLEAR     52  45  76 W10G18    29.82R
BUFFALO        CLEAR     53  46  77 SW10      29.81R
MAPLE LAKE     CLEAR     53  47  81 W8        29.80R
HUTCHINSON     PTCLDY    51  46  82 W9        29.84R
$$
MNZ037-044-045-052-053-220400-
   East Central Minnesota

CITY           SKY/WX    TMP DP  RH WIND       PRES   REMARKS
PRINCETON      PTCLDY    54  50  87 SW10      29.76R
MORA           CLOUDY    50  48  93 SW5       29.75R
CAMBRIDGE      CLOUDY    54  54 100 SW6       29.75R
RUSH CITY      LGT RAIN  53  51  92 SW5       29.73R
MOOSE LAKE     CLOUDY    54  50  87 W7        29.67S
HINCKLEY       CLOUDY    54  52  94 SW7       29.71R
CLOQUET        RAIN      63  57  82 SW13      29.66R
MCGREGOR       CLOUDY    52  50  93 SW3       29.69S
$$
MNZ071>073-080-081-089-090-097-098-220400-
   Southwest Minnesota

CITY           SKY/WX    TMP DP  RH WIND       PRES   REMARKS
MONTEVIDEO     CLEAR     48  41  76 W5        29.83R
GRANITE FALLS  CLEAR     47  42  82 SW8       29.85R
CANBY          CLEAR     49  41  74 SW9       29.85R
MARSHALL       CLEAR     48  40  73 W12       29.86R
REDWOOD FALLS  CLOUDY    50  41  71 W12       29.84R
OLIVIA         CLEAR     50  43  76 W10       29.83R
PIPESTONE      CLEAR     45  37  76 W8        29.88R
WORTHINGTON    CLOUDY    46  39  76 W7        29.89R
JACKSON        CLOUDY    48  39  71 W12       29.89R
TRACY          CLOUDY    49  42  76 W6        29.87R
SLAYTON        CLOUDY    46  40  77 W12       29.89R
$$
MNZ065>067-074>077-082>085-091>093-220400-
   South Central Minnesota

CITY           SKY/WX    TMP DP  RH WIND       PRES   REMARKS
MANKATO        PTCLDY    53  45  74 W17       29.85R
NEW ULM          N/A     52  43  71 W12       29.86R
ST JAMES       PTCLDY    52  43  71 W10G17    29.88R
FAIRMONT       MOCLDY    52  43  71 W17       29.88R
GLENCOE        CLEAR     53  46  77 W8        29.82R
FARIBAULT      CLOUDY    55  52  88 W8        29.82R
OWATONNA       CLOUDY    54  52  94 W8        29.82R
WASECA         CLOUDY    52  48  87 W9G16     29.85R
$$
MNZ078>079-086>088-094>096-220400-
   Southeast Minnesota

CITY           SKY/WX    TMP DP  RH WIND       PRES   REMARKS
ROCHESTER      RAIN      55  54  96 W14       29.81R
RED WING       CLOUDY    57  52  82 NW5       29.78R
STANTON        CLOUDY    56  52  85 W6        29.79R
DODGE CENTER   LGT RAIN  54  52  94 W13       29.82R
WINONA         LGT RAIN  66  63  88 S6        29.77F
AUSTIN         LGT RAIN  55  52  88 W10       29.81R
PRESTON        CLOUDY    61  59  91 SW7       29.80R
$$
ABBREVIATIONS USED IN REMARKS
   TC - TEMPERATURES IN CELSIUS
  WCI - WIND CHILL INDEX
   HX - HEAT INDEX
  VSB - VISIBILITY
$$




USA.gov is the U.S. government's official web portal to all federal, state and local government web resources and services.